Rome, OR

12:56 AM MDT on May 24, 2018 (GMT -0600)
Rome State

Weather History for KREO - November, 2011

Change the Weather History Date:

Thursday, November 17, 2011

  Actual Average Record
Temperature  
Mean Temperature 47 °F 36 °F  
Max Temperature 58 °F 48 °F 62 °F (2007)
Min Temperature 36 °F 23 °F 11 °F (2014)
Degree Days  
Heating Degree Days 18 29  
Month to date heating degree days 493 441  
Since 1 July heating degree days 1044 1198  
Cooling Degree Days 0 0  
Month to date cooling degree days 0 0  
Year to date cooling degree days 430 507  
Moisture  
Dew Point 32 °F    
Average Humidity 62    
Maximum Humidity 85    
Minimum Humidity 38    
Precipitation  
Precipitation 0.00 in 0.02 in 0.61 in (2001)
Month to date precipitation 0.59 0.37  
Year to date precipitation 10.28 7.84  
Sea Level Pressure  
Sea Level Pressure 29.81 in    
Wind  
Wind Speed 16 mph (SSW)    
Max Wind Speed 28 mph    
Max Gust Speed 43 mph    
T = Trace of Precipitation, MM = Missing Value Source: NWS Daily Summary

Daily Weather History Graph

Daily Weather History Graph

Search for Another Location

Airport or City:

Astronomy

Nov. 17, 2011 Rise Set
Actual Time 6:45 AM PST 4:27 PM PST
Civil Twilight 6:14 AM PST 4:57 PM PST
Nautical Twilight 5:40 AM PST 5:32 PM PST
Astronomical Twilight 5:07 AM PST 6:05 PM PST
Moon 10:56 PM PST (11/17) 11:54 AM PST (11/17)
Length of Visible Light 10h 43m
Length of Day
9h 42m
Waning Gibbous, 59% of the Moon is Illuminated
Nov 17
Waning Gibbous
Nov 18
Last Quarter
Nov 24
New
Dec 2
First Quarter
Dec 10
Full

Hourly Weather History & Observations

Time (PST) Temp. Windchill Dew Point Humidity Pressure Visibility Wind Dir Wind Speed Gust Speed Precip Events Conditions
12:52 AM 45.0 °F 41.8 °F 30.9 °F 58% 30.00 in - SSE 5.8 mph - N/A   Unknown
1:52 AM 48.9 °F - 32.0 °F 52% 29.96 in - South 15.0 mph - N/A   Unknown
2:52 AM 48.9 °F - 32.0 °F 52% 29.96 in - South 9.2 mph - N/A   Unknown
3:52 AM 48.0 °F - 33.1 °F 56% 29.94 in - SSW 13.8 mph - N/A   Unknown
4:52 AM 46.9 °F - 33.1 °F 59% 29.95 in - South 10.4 mph - N/A   Unknown
5:52 AM 51.1 °F - 33.1 °F 50% 29.94 in - SSW 12.7 mph 27.6 mph N/A   Unknown
6:52 AM 50.0 °F - 33.1 °F 52% 29.93 in - SSW 16.1 mph 24.2 mph N/A   Unknown
7:52 AM 50.0 °F - 33.1 °F 52% 29.93 in - SSW 17.3 mph - N/A   Unknown
8:52 AM 53.1 °F - 34.0 °F 48% 29.90 in - South 18.4 mph 29.9 mph N/A   Unknown
9:52 AM 55.0 °F - 34.0 °F 45% 29.86 in - South 21.9 mph 29.9 mph N/A   Unknown
10:52 AM 55.0 °F - 33.1 °F 43% 29.86 in - SW 27.6 mph 38.0 mph N/A   Unknown
11:52 AM 57.0 °F - 32.0 °F 39% 29.79 in - SSW 27.6 mph 40.3 mph N/A   Unknown
12:52 PM 55.9 °F - 32.0 °F 40% 29.74 in - SSW 24.2 mph 33.4 mph N/A   Unknown
1:52 PM 57.0 °F - 32.0 °F 39% 29.71 in - WSW 23.0 mph 32.2 mph N/A   Unknown
2:52 PM 55.0 °F - 30.0 °F 38% 29.70 in - SW 27.6 mph 36.8 mph N/A   Unknown
3:52 PM 53.1 °F - 28.9 °F 40% 29.69 in - SW 27.6 mph 41.4 mph N/A   Unknown
4:52 PM 51.1 °F - 28.9 °F 43% 29.69 in - SSW 23.0 mph 38.0 mph N/A   Unknown
5:52 PM 51.1 °F - 28.0 °F 41% 29.68 in - SW 24.2 mph 35.7 mph N/A   Unknown
6:52 PM 48.9 °F - 30.0 °F 48% 29.68 in - SSW 25.3 mph 36.8 mph N/A   Unknown
7:52 PM 42.1 °F 39.2 °F 33.1 °F 70% 29.71 in - NNW 4.6 mph 25.3 mph N/A   Unknown
8:52 PM 39.0 °F 32.3 °F 32.0 °F 76% 29.71 in - WNW 10.4 mph - N/A   Unknown
9:52 PM 37.0 °F 31.6 °F 33.1 °F 86% 29.71 in - SSE 6.9 mph - N/A   Unknown
10:52 PM 37.9 °F - 30.9 °F 76% 29.70 in - Calm Calm - N/A   Unknown
11:52 PM 36.0 °F 30.3 °F 28.9 °F 76% 29.69 in - SSW 6.9 mph - N/A   Unknown